Showing default

SPACEMOBILE-003, 61045

Orbit data source: Space-Track

SPACEMOBILE-003, 61045 is a payload satellite owned by AST & Science (US) in LEO that was launched on Thu, 12 Sep 2024 UTC via an FALCON 9 launch vehicle from the Air Force Eastern Test Range (AFETR). Payload-class satellites include a variety of spacecraft equipped with specific instruments for various scientific and technological missions. These include communications satellites like Starlink; space stations such as the ISS; scientific satellites like the Hubble; Earth observation satellites from companies like Planet Labs, Umbra, and HawkEye 360; GPS; miniature CubeSats for education and research; and military/defense satellites.

Loading next visibility...
Identifier
61045, 2024-163A
Orbit
LEO
Country
Flag of USUS
Related business
Manufacturer
AST & Science
Mission
Operational Commercial Communications
Bus & Motor
BW3, Unknown motor
Mass
1,500 kg wet, 1,500 kg dry
Launch date (UTC)
2024-09-12 (1 year ago)
Launch vehicle
FALCON 9
Launch site
Air Force Eastern Test Range (AFETR)
Object type
Payload
Rocket body
Debris
Shape & HBR
Box + 1 Plate, 6.5 m
Radar Cross Section
32.590 m², Large (>1 m²)

Expand to show TLE details & history
Last TLE update: 5 hours ago

TLE from 5 hours ago
0 SPACEMOBILE-003
1 61045U 24163A   25343.51584833  .00027253  00000-0  12276-2 0  9995
2 61045  52.9725 101.9303 0007944 269.8727  90.1357 15.20862514 68902
Epoch: 2025-12-09T12:22Z
TLE epoch observation values (Epoch: 2025-12-09T12:22:49.295Z)
Latitude
-0.00003°
Longitude
-162.27453°
Altitude
504.131 km
Speed
7.613 km/s
True Right ascension
06h 47m 43s
True Declination
0° 00' 00"
Sunlit
Object was in full shadow at epoch
Visualization orbit readout
Latitude
Unknown
Longitude
Unknown
Altitude
Unknown
Speed
Unknown
Apparent Right ascension
Unknown
Apparent Declination
Unknown
Sunlit
N/A
Visualization observer readout
Local Sidereal Time
15:17:46
Azimuth
Unknown
Elevation
Unknown
Doppler factor
Unknown
Orbital elements
Apogee altitude
508.99 km
Perigee altitude
498.056 km
Semi-major axis
6,881.66 km
Eccentricity
0.00079
Inclination
52.9725°
RAAN
101.9303°
Arg. of periapsis
269.8727°
True anomaly
90.22673°
Mean anomaly
90.1357°
Eccentric anomaly
90.18122°
Mean motion
3.80192 °/min
Orbital period
94.69 mins
BSTAR
0.0012276
Loading maneuver chart data...
Computing Atmospheric mass density...
Loading historical data...
Loading historical data...
Loading historical data...
Loading historical data...
Loading historical data...
Loading historical data...
Loading historical data...

Documentation

Showing up to 5 results
|